sat.trackr.live / text

‹ back to catalog

ANIK G1

NORAD 39127 · 2013-014A

PAYLOAD ACTIVE UNKNOWN

§ Identity

Operator
Country
CA
Launch date
2013-04-15
Launch site
TYMSC
Launch vehicle
Mass (kg)
RCS (m²)
212.12

Purposes: comms

External: N2YO · Heavens-Above · Gunter

§ Orbital elements

Epoch: 2026-09-14T21:50:49.979616Z

Period
1,436.09 min
Inclination
0.0190°
Eccentricity
0.0002736
Mean motion
1.00272389 rev/d
Perigee alt
35,774.9 km
Apogee alt
35,798.0 km
Semi-major
42,164.6 km
B*
0.0000e+0
RAAN
239.5976°
Arg perigee
306.0261°
Mean anomaly
28.6700°
Rev number
4,915

§ Raw data

ANIK G11 39127U 13014A   26257.91030069 -.00000081  00000+0  00000+0 0  99992 39127   0.0190 239.5976 0002736 306.0261  28.6700  1.00272389 49155

JSON: /api/v1/satellites/39127 · /tle

For live sub-satellite position, see the globe view (requires WebGL).

§ Visibility from observer

Set your observer location to see the next 7 days of passes ≥ 10°. The values pass through the URL so the page stays shareable.

No JS? Fill the form by hand. The geolocation button needs JavaScript.